TimeEDT,TemperatureF,Dew PointF,Humidity,Sea Level PressureIn,VisibilityMPH,Wind Direction,Wind SpeedMPH,Gust SpeedMPH,PrecipitationIn,Events,Conditions,WindDirDegrees,DateUTC
12:15 AM,48.2,37.4,66,30.03,-9999.0,NW,15.0,23.0,N/A,,Overcast,320,2013-05-25 04:15:00
12:35 AM,50.0,35.6,58,30.02,-9999.0,NW,15.0,24.2,N/A,,Overcast,320,2013-05-25 04:35:00
12:55 AM,50.0,37.4,62,30.02,-9999.0,NW,11.5,27.6,N/A,,Overcast,310,2013-05-25 04:55:00
1:15 AM,50.0,37.4,62,30.02,-9999.0,NW,13.8,24.2,N/A,,Overcast,320,2013-05-25 05:15:00
1:35 AM,48.2,37.4,66,30.02,-9999.0,NNW,12.7,23.0,N/A,,Overcast,330,2013-05-25 05:35:00
1:55 AM,48.2,37.4,66,30.01,-9999.0,NNW,15.0,29.9,N/A,,Overcast,330,2013-05-25 05:55:00
2:15 AM,48.2,37.4,66,30.01,-9999.0,NW,12.7,31.1,N/A,,Overcast,320,2013-05-25 06:15:00
2:35 AM,48.2,37.4,66,30.00,-9999.0,NW,15.0,23.0,N/A,,Overcast,310,2013-05-25 06:35:00
2:55 AM,48.2,37.4,66,30.00,-9999.0,NW,12.7,27.6,N/A,,Overcast,310,2013-05-25 06:55:00
3:15 AM,50.0,37.4,62,30.00,-9999.0,NW,16.1,26.5,N/A,,Overcast,310,2013-05-25 07:15:00
3:35 AM,50.0,35.6,58,30.00,-9999.0,NW,16.1,29.9,N/A,,Overcast,320,2013-05-25 07:35:00
3:55 AM,50.0,35.6,58,30.00,-9999.0,NW,15.0,24.2,N/A,,Overcast,310,2013-05-25 07:55:00
4:15 AM,50.0,35.6,58,30.01,-9999.0,NW,13.8,25.3,N/A,,Overcast,320,2013-05-25 08:15:00
4:35 AM,50.0,35.6,58,30.01,-9999.0,NW,15.0,27.6,N/A,,Overcast,320,2013-05-25 08:35:00
4:55 AM,50.0,35.6,58,30.00,-9999.0,NW,17.3,25.3,N/A,,Overcast,310,2013-05-25 08:55:00
5:15 AM,50.0,35.6,58,30.00,-9999.0,NW,17.3,24.2,N/A,,Overcast,320,2013-05-25 09:15:00
5:35 AM,50.0,35.6,58,30.01,-9999.0,NW,16.1,26.5,N/A,,Overcast,310,2013-05-25 09:35:00
5:55 AM,51.8,35.6,54,30.02,-9999.0,NW,16.1,27.6,N/A,,Overcast,310,2013-05-25 09:55:00
6:15 AM,51.8,35.6,54,30.02,-9999.0,NW,16.1,31.1,N/A,,Overcast,310,2013-05-25 10:15:00
6:35 AM,51.8,35.6,54,30.03,-9999.0,NW,16.1,27.6,N/A,,Overcast,310,2013-05-25 10:35:00
6:55 AM,50.0,35.6,58,30.02,-9999.0,NW,18.4,33.4,N/A,,Overcast,320,2013-05-25 10:55:00
7:15 AM,51.8,35.6,54,30.03,-9999.0,NW,13.8,28.8,N/A,,Mostly Cloudy,310,2013-05-25 11:15:00
7:35 AM,51.8,35.6,54,30.03,-9999.0,NW,18.4,31.1,N/A,,Mostly Cloudy,310,2013-05-25 11:35:00
7:55 AM,51.8,35.6,54,30.03,-9999.0,WNW,17.3,31.1,N/A,,Overcast,300,2013-05-25 11:55:00
8:15 AM,51.8,35.6,54,30.03,-9999.0,NW,15.0,28.8,N/A,,Overcast,310,2013-05-25 12:15:00
8:35 AM,53.6,37.4,54,30.04,-9999.0,WNW,16.1,26.5,N/A,,Mostly Cloudy,300,2013-05-25 12:35:00
8:55 AM,53.6,35.6,51,30.04,-9999.0,NW,16.1,27.6,N/A,,Partly Cloudy,310,2013-05-25 12:55:00
9:15 AM,53.6,35.6,51,30.04,-9999.0,NW,15.0,24.2,N/A,,Clear,320,2013-05-25 13:15:00
9:35 AM,55.4,35.6,47,30.04,-9999.0,NW,20.7,28.8,N/A,,Clear,310,2013-05-25 13:35:00
9:55 AM,55.4,35.6,47,30.03,-9999.0,WNW,16.1,26.5,N/A,,Clear,300,2013-05-25 13:55:00
10:15 AM,55.4,37.4,51,30.03,-9999.0,NW,18.4,27.6,N/A,,Clear,310,2013-05-25 14:15:00
10:35 AM,55.4,37.4,51,30.04,-9999.0,WNW,15.0,25.3,N/A,,Partly Cloudy,300,2013-05-25 14:35:00
10:55 AM,57.2,37.4,48,30.03,-9999.0,WNW,19.6,29.9,N/A,,Partly Cloudy,290,2013-05-25 14:55:00
11:15 AM,57.2,37.4,48,30.04,-9999.0,NW,17.3,34.5,N/A,,Scattered Clouds,310,2013-05-25 15:15:00
11:35 AM,57.2,37.4,48,30.04,-9999.0,WNW,17.3,27.6,N/A,,Scattered Clouds,290,2013-05-25 15:35:00
11:55 AM,57.2,37.4,48,30.04,-9999.0,WNW,18.4,29.9,N/A,,Scattered Clouds,290,2013-05-25 15:55:00
12:15 PM,57.2,37.4,48,30.03,-9999.0,WNW,15.0,28.8,N/A,,Scattered Clouds,300,2013-05-25 16:15:00
12:35 PM,59.0,37.4,45,30.03,-9999.0,WNW,20.7,31.1,N/A,,Partly Cloudy,290,2013-05-25 16:35:00
12:55 PM,59.0,37.4,45,30.02,-9999.0,WNW,16.1,27.6,N/A,,Partly Cloudy,300,2013-05-25 16:55:00
1:15 PM,60.8,37.4,42,30.02,-9999.0,WNW,15.0,28.8,N/A,,Scattered Clouds,290,2013-05-25 17:15:00
1:35 PM,60.8,37.4,42,30.02,-9999.0,WNW,20.7,28.8,N/A,,Scattered Clouds,300,2013-05-25 17:35:00
1:55 PM,60.8,35.6,39,30.03,-9999.0,WNW,13.8,28.8,N/A,,Mostly Cloudy,300,2013-05-25 17:55:00
2:15 PM,59.0,35.6,42,30.03,-9999.0,WNW,16.1,27.6,N/A,,Overcast,300,2013-05-25 18:15:00
2:35 PM,60.8,37.4,42,30.03,-9999.0,NW,13.8,23.0,N/A,,Mostly Cloudy,310,2013-05-25 18:35:00
2:55 PM,60.8,35.6,39,30.03,-9999.0,WNW,11.5,24.2,N/A,,Mostly Cloudy,290,2013-05-25 18:55:00
3:15 PM,60.8,37.4,42,30.04,-9999.0,WNW,15.0,26.5,N/A,,Overcast,300,2013-05-25 19:15:00
3:35 PM,60.8,37.4,42,30.03,-9999.0,WNW,16.1,24.2,N/A,,Mostly Cloudy,300,2013-05-25 19:35:00
3:55 PM,60.8,37.4,42,30.03,-9999.0,WNW,18.4,28.8,N/A,,Mostly Cloudy,290,2013-05-25 19:55:00
4:15 PM,60.8,35.6,39,30.03,-9999.0,West,17.3,28.8,N/A,,Partly Cloudy,280,2013-05-25 20:15:00
4:35 PM,62.6,35.6,37,30.03,-9999.0,WNW,11.5,25.3,N/A,,Partly Cloudy,300,2013-05-25 20:35:00
4:55 PM,62.6,37.4,39,30.02,-9999.0,WNW,15.0,25.3,N/A,,Scattered Clouds,300,2013-05-25 20:55:00
5:15 PM,62.6,35.6,37,30.03,-9999.0,WNW,10.4,21.9,N/A,,Partly Cloudy,300,2013-05-25 21:15:00
5:35 PM,62.6,35.6,37,30.03,-9999.0,WNW,11.5,21.9,N/A,,Clear,300,2013-05-25 21:35:00
5:55 PM,62.6,35.6,37,30.03,-9999.0,WNW,13.8,21.9,N/A,,Clear,300,2013-05-25 21:55:00
6:15 PM,62.6,35.6,37,30.03,-9999.0,WNW,10.4,20.7,N/A,,Clear,300,2013-05-25 22:15:00
6:35 PM,60.8,37.4,42,30.03,-9999.0,WNW,12.7,19.6,N/A,,Clear,300,2013-05-25 22:35:00
6:55 PM,60.8,35.6,39,30.04,-9999.0,NW,9.2,18.4,N/A,,Clear,310,2013-05-25 22:55:00
7:15 PM,60.8,35.6,39,30.04,-9999.0,NW,6.9,-,N/A,,Mostly Cloudy,310,2013-05-25 23:15:00
7:35 PM,60.8,37.4,42,30.04,-9999.0,NW,8.1,-,N/A,,Mostly Cloudy,310,2013-05-25 23:35:00
7:55 PM,60.8,35.6,39,30.05,-9999.0,NW,6.9,-,N/A,,Scattered Clouds,320,2013-05-25 23:55:00
8:15 PM,60.8,35.6,39,30.05,-9999.0,NW,8.1,-,N/A,,Clear,320,2013-05-26 00:15:00
8:35 PM,59.0,35.6,42,30.05,-9999.0,NW,9.2,-,N/A,,Clear,320,2013-05-26 00:35:00
8:55 PM,59.0,35.6,42,30.05,-9999.0,NW,8.1,-,N/A,,Clear,320,2013-05-26 00:55:00
9:15 PM,59.0,35.6,42,30.06,-9999.0,NNW,5.8,-,N/A,,Clear,330,2013-05-26 01:15:00
9:35 PM,-9999,-9999,N/A,-9999,-9999.0,North,-9999.0,-,N/A,,Unknown,0,2013-05-26 01:35:00
9:55 PM,-9999,-9999,N/A,-9999,-9999.0,North,-9999.0,-,N/A,,Unknown,0,2013-05-26 01:55:00
10:15 PM,-9999,-9999,N/A,-9999,-9999.0,North,-9999.0,-,N/A,,Unknown,0,2013-05-26 02:15:00
10:35 PM,-9999,-9999,N/A,-9999,-9999.0,North,-9999.0,-,N/A,,Unknown,0,2013-05-26 02:35:00
10:55 PM,-9999,-9999,N/A,30.09,-9999.0,NNW,8.1,-,N/A,,Unknown,330,2013-05-26 02:55:00
11:15 PM,57.2,33.8,41,30.08,-9999.0,NNW,9.2,18.4,N/A,,Clear,330,2013-05-26 03:15:00
11:35 PM,57.2,32.0,38,30.07,-9999.0,NW,9.2,19.6,N/A,,Clear,320,2013-05-26 03:35:00
11:55 PM,57.2,33.8,41,30.07,-9999.0,NNW,9.2,-,N/A,,Clear,340,2013-05-26 03:55:00